OOBEL LOWI-LIML

Flight info

Callsign OOBEL
Flight time 0h 44m
Altitude 19000
Route BRENO2J/08 BRENO M726 EKPIS/N0415F210 DCT NAXAV/N0425F230 DCT RENTA DCT ATPED DCT LUSIL
Aircraft C25C/M-SDE2E3FGHRWXY/LB1

Departure

Time 2026-05-06 19:46
Airport Innsbruck Airport (LOWI)

Arrival

Time 2026-05-06 20:30
Airport Milano Linate Airport (LIML)
Time Latitude Longitude Altitude Speed Heading
2026-05-06 19:33 47.25903 11.35363 1900 ft 0 kts 261°
2026-05-06 19:38 47.25903 11.35362 1900 ft 0 kts 261°
2026-05-06 19:38 47.25900 11.35333 1898 ft 10 kts 261°
2026-05-06 19:39 47.25893 11.35185 1900 ft 19 kts 269°
2026-05-06 19:39 47.25867 11.34960 1900 ft 26 kts 262°
2026-05-06 19:39 47.25834 11.34666 1896 ft 30 kts 263°
2026-05-06 19:39 47.25810 11.34430 1900 ft 19 kts 261°
2026-05-06 19:40 47.25789 11.34247 1900 ft 16 kts 262°
2026-05-06 19:40 47.25774 11.34098 1898 ft 13 kts 260°
2026-05-06 19:40 47.25775 11.33978 1900 ft 10 kts 281°
2026-05-06 19:40 47.25800 11.33900 1897 ft 7 kts 307°
2026-05-06 19:41 47.25821 11.33857 1895 ft 0 kts 306°
2026-05-06 19:44 47.25823 11.33853 1893 ft 2 kts 305°
2026-05-06 19:44 47.25857 11.33783 1900 ft 15 kts 306°
2026-05-06 19:44 47.25943 11.33710 1892 ft 14 kts 53°
2026-05-06 19:44 47.25952 11.33754 1894 ft 0 kts 81°
2026-05-06 19:45 47.25954 11.33784 1897 ft 18 kts 83°
2026-05-06 19:45 47.25984 11.34221 1897 ft 52 kts 80°
2026-05-06 19:45 47.26064 11.34820 1900 ft 81 kts 81°
2026-05-06 19:45 47.26101 11.35787 2123 ft 95 kts 103°
2026-05-06 19:46 47.26106 11.36829 2513 ft 115 kts 91°
2026-05-06 19:46 47.26149 11.38185 2763 ft 149 kts 89°
2026-05-06 19:46 47.26296 11.39752 3286 ft 163 kts 83°
2026-05-06 19:46 47.26475 11.41499 3681 ft 186 kts 72°
2026-05-06 19:47 47.26988 11.43378 3981 ft 210 kts 77°
2026-05-06 19:47 47.27300 11.45606 4180 ft 236 kts 74°
2026-05-06 19:47 47.27972 11.47936 4359 ft 255 kts 68°
2026-05-06 19:47 47.28639 11.50360 4878 ft 256 kts 71°
2026-05-06 19:48 47.29312 11.52809 5350 ft 261 kts 69°
2026-05-06 19:48 47.30019 11.55289 5854 ft 265 kts 69°
2026-05-06 19:48 47.30737 11.57803 6379 ft 267 kts 68°
2026-05-06 19:48 47.31451 11.60346 6890 ft 270 kts 71°
2026-05-06 19:49 47.31697 11.63050 7353 ft 268 kts 102°
2026-05-06 19:49 47.31092 11.65628 7870 ft 266 kts 124°
2026-05-06 19:49 47.29736 11.67421 8343 ft 264 kts 152°
2026-05-06 19:49 47.28013 11.68151 8905 ft 259 kts 181°
2026-05-06 19:50 47.26247 11.67706 9433 ft 259 kts 202°
2026-05-06 19:50 47.24867 11.66068 9884 ft 261 kts 232°
2026-05-06 19:50 47.24055 11.63659 10290 ft 269 kts 257°
2026-05-06 19:50 47.23924 11.60905 10815 ft 270 kts 262°
2026-05-06 19:51 47.23740 11.58149 11244 ft 272 kts 263°
2026-05-06 19:51 47.23683 11.55368 11791 ft 271 kts 265°
2026-05-06 19:51 47.23577 11.52603 12266 ft 270 kts 263°
2026-05-06 19:51 47.23454 11.49837 12639 ft 273 kts 263°
2026-05-06 19:52 47.23341 11.47063 13121 ft 271 kts 263°
2026-05-06 19:52 47.22969 11.44411 13510 ft 268 kts 243°
2026-05-06 19:52 47.21978 11.42102 13877 ft 267 kts 227°
2026-05-06 19:52 47.20494 11.40477 14238 ft 268 kts 209°
2026-05-06 19:53 47.18706 11.39673 14554 ft 273 kts 188°
2026-05-06 19:53 47.16809 11.39478 14927 ft 274 kts 188°
2026-05-06 19:53 47.14902 11.39248 15230 ft 276 kts 186°
2026-05-06 19:53 47.12980 11.39118 15570 ft 277 kts 186°
2026-05-06 19:54 47.11044 11.38905 15813 ft 280 kts 187°
2026-05-06 19:54 47.09079 11.38707 15938 ft 287 kts 187°
2026-05-06 19:54 47.07064 11.38495 15995 ft 294 kts 187°
2026-05-06 19:54 47.04993 11.38296 16017 ft 302 kts 186°
2026-05-06 19:55 47.02870 11.38084 16028 ft 309 kts 187°
2026-05-06 19:55 47.00720 11.37869 16218 ft 310 kts 186°
2026-05-06 19:55 46.98617 11.37269 16231 ft 309 kts 204°
2026-05-06 19:55 46.96736 11.35759 16404 ft 310 kts 214°
2026-05-06 19:56 46.95169 11.33587 16496 ft 311 kts 224°
2026-05-06 19:56 46.93565 11.31457 16563 ft 311 kts 220°
2026-05-06 19:56 46.91980 11.29305 16738 ft 312 kts 223°
2026-05-06 19:56 46.90404 11.27134 16886 ft 311 kts 223°
2026-05-06 19:57 46.88828 11.24950 16954 ft 312 kts 222°
2026-05-06 19:57 46.87236 11.22777 17064 ft 313 kts 222°
2026-05-06 19:57 46.85648 11.20600 17142 ft 313 kts 223°
2026-05-06 19:57 46.84060 11.18419 17284 ft 314 kts 222°
2026-05-06 19:58 46.82463 11.16245 17489 ft 312 kts 222°
2026-05-06 19:58 46.80879 11.14087 17553 ft 312 kts 223°
2026-05-06 19:58 46.79295 11.11908 17588 ft 313 kts 222°
2026-05-06 19:58 46.77690 11.09757 17674 ft 313 kts 223°
2026-05-06 19:59 46.76089 11.07610 17754 ft 313 kts 219°
2026-05-06 19:59 46.74411 11.05566 17794 ft 315 kts 219°
2026-05-06 19:59 46.72715 11.03537 17786 ft 316 kts 219°
2026-05-06 19:59 46.71069 11.01458 17859 ft 318 kts 220°
2026-05-06 20:00 46.69385 10.99340 17856 ft 321 kts 220°
2026-05-06 20:00 46.67693 10.97214 17901 ft 323 kts 219°
2026-05-06 20:00 46.65937 10.95093 17947 ft 324 kts 219°
2026-05-06 20:00 46.64224 10.92947 17967 ft 325 kts 220°
2026-05-06 20:01 46.62533 10.90825 17979 ft 326 kts 219°
2026-05-06 20:01 46.60800 10.88692 17973 ft 326 kts 220°
2026-05-06 20:01 46.59073 10.86549 17939 ft 327 kts 220°
2026-05-06 20:01 46.57335 10.84417 17853 ft 327 kts 219°
2026-05-06 20:02 46.55609 10.82257 17833 ft 327 kts 219°
2026-05-06 20:02 46.53863 10.80128 17790 ft 328 kts 220°
2026-05-06 20:02 46.52135 10.77972 17795 ft 328 kts 218°
2026-05-06 20:02 46.50379 10.75849 17767 ft 328 kts 220°
2026-05-06 20:03 46.48656 10.73675 17755 ft 328 kts 220°
2026-05-06 20:03 46.46910 10.71545 17765 ft 328 kts 219°
2026-05-06 20:03 46.45162 10.69411 17759 ft 328 kts 220°
2026-05-06 20:03 46.43421 10.67274 17807 ft 328 kts 219°
2026-05-06 20:04 46.41687 10.65125 17811 ft 328 kts 220°
2026-05-06 20:04 46.39951 10.62985 17714 ft 327 kts 219°
2026-05-06 20:04 46.38193 10.60891 17703 ft 327 kts 219°
2026-05-06 20:04 46.36458 10.58759 17731 ft 327 kts 220°
2026-05-06 20:05 46.34741 10.56592 17771 ft 327 kts 220°
2026-05-06 20:05 46.32993 10.54486 17773 ft 327 kts 219°
2026-05-06 20:05 46.31245 10.52377 17760 ft 327 kts 219°
2026-05-06 20:05 46.29522 10.50234 17815 ft 327 kts 219°
2026-05-06 20:06 46.27765 10.48147 17834 ft 327 kts 220°
2026-05-06 20:06 46.26040 10.46008 17876 ft 327 kts 219°
2026-05-06 20:06 46.24300 10.43896 17913 ft 327 kts 219°
2026-05-06 20:06 46.22561 10.41788 17904 ft 327 kts 219°
2026-05-06 20:07 46.20817 10.39674 17900 ft 328 kts 219°
2026-05-06 20:07 46.19078 10.37546 17903 ft 328 kts 219°
2026-05-06 20:07 46.17325 10.35440 17927 ft 329 kts 219°
2026-05-06 20:07 46.15575 10.33313 17928 ft 328 kts 219°
2026-05-06 20:08 46.13828 10.31204 17937 ft 328 kts 219°
2026-05-06 20:08 46.12080 10.29080 17923 ft 328 kts 219°
2026-05-06 20:08 46.10326 10.26976 17930 ft 328 kts 219°
2026-05-06 20:08 46.08590 10.24860 17939 ft 328 kts 220°
2026-05-06 20:09 46.06838 10.22755 17926 ft 328 kts 219°
2026-05-06 20:09 46.05088 10.20653 17924 ft 327 kts 219°
2026-05-06 20:09 46.03332 10.18586 17927 ft 327 kts 219°
2026-05-06 20:09 46.01618 10.16436 17931 ft 328 kts 220°
2026-05-06 20:10 45.99863 10.14340 17925 ft 327 kts 219°
2026-05-06 20:10 45.98115 10.12256 17925 ft 327 kts 219°
2026-05-06 20:10 45.96378 10.10207 17918 ft 327 kts 219°
2026-05-06 20:10 45.94640 10.08104 17923 ft 326 kts 220°
2026-05-06 20:11 45.92908 10.05995 17915 ft 327 kts 219°
2026-05-06 20:11 45.91148 10.03922 17907 ft 327 kts 219°
2026-05-06 20:11 45.89969 10.02508 17907 ft 328 kts 220°
2026-05-06 20:11 45.87651 9.99739 17906 ft 327 kts 219°
2026-05-06 20:12 45.85907 9.97646 17900 ft 326 kts 219°
2026-05-06 20:12 45.84724 9.96245 17899 ft 326 kts 219°
2026-05-06 20:12 45.82984 9.94155 17929 ft 326 kts 219°
2026-05-06 20:12 45.81236 9.92084 17940 ft 326 kts 219°
2026-05-06 20:13 45.79489 9.90010 17932 ft 326 kts 219°
2026-05-06 20:13 45.77714 9.87976 17910 ft 327 kts 214°
2026-05-06 20:13 45.75750 9.86332 17916 ft 327 kts 211°
2026-05-06 20:13 45.73825 9.84627 17412 ft 321 kts 212°
2026-05-06 20:14 45.71884 9.82975 15649 ft 324 kts 212°
2026-05-06 20:14 45.70046 9.81234 14339 ft 317 kts 217°
2026-05-06 20:14 45.68344 9.79278 13168 ft 308 kts 220°
2026-05-06 20:14 45.66792 9.77388 12904 ft 274 kts 220°
2026-05-06 20:15 45.65435 9.75742 12901 ft 240 kts 220°
2026-05-06 20:15 45.64245 9.74278 12900 ft 213 kts 220°
2026-05-06 20:15 45.63182 9.72966 12898 ft 194 kts 221°
2026-05-06 20:15 45.62132 9.71550 12904 ft 222 kts 223°
2026-05-06 20:16 45.60931 9.69964 12903 ft 248 kts 220°
2026-05-06 20:16 45.59392 9.68637 12910 ft 269 kts 208°
2026-05-06 20:16 45.57666 9.67408 12921 ft 285 kts 206°
2026-05-06 20:16 45.55731 9.66405 13065 ft 299 kts 198°
2026-05-06 20:17 45.53703 9.65560 13078 ft 308 kts 198°
2026-05-06 20:17 45.51673 9.64778 12749 ft 301 kts 195°
2026-05-06 20:17 45.49675 9.64085 11747 ft 278 kts 195°
2026-05-06 20:17 45.47779 9.63432 10863 ft 280 kts 195°
2026-05-06 20:18 45.45925 9.62805 10167 ft 264 kts 194°
2026-05-06 20:18 45.44075 9.62151 9324 ft 274 kts 195°
2026-05-06 20:18 45.42239 9.61526 8732 ft 270 kts 195°
2026-05-06 20:18 45.40425 9.60891 8113 ft 267 kts 195°
2026-05-06 20:19 45.38625 9.60278 7532 ft 264 kts 195°
2026-05-06 20:19 45.36845 9.59655 6929 ft 263 kts 195°
2026-05-06 20:19 45.35075 9.59057 6390 ft 260 kts 195°
2026-05-06 20:19 45.33342 9.58457 6090 ft 249 kts 195°
2026-05-06 20:20 45.31716 9.57919 6051 ft 232 kts 195°
2026-05-06 20:20 45.30192 9.57412 6026 ft 218 kts 195°
2026-05-06 20:20 45.28753 9.56933 6021 ft 209 kts 195°
2026-05-06 20:20 45.27403 9.56484 6013 ft 181 kts 194°
2026-05-06 20:21 45.26199 9.56116 5659 ft 180 kts 194°
2026-05-06 20:21 45.24890 9.55706 4748 ft 206 kts 193°
2026-05-06 20:21 45.23424 9.55206 3918 ft 221 kts 194°
2026-05-06 20:21 45.22070 9.54280 3401 ft 218 kts 227°
2026-05-06 20:22 45.21515 9.52349 3027 ft 210 kts 263°
2026-05-06 20:22 45.21355 9.50397 2973 ft 190 kts 264°
2026-05-06 20:22 45.21257 9.48624 2966 ft 171 kts 266°
2026-05-06 20:22 45.21173 9.47013 2963 ft 156 kts 266°
2026-05-06 20:23 45.21105 9.45541 2966 ft 143 kts 266°
2026-05-06 20:23 45.21046 9.44167 2961 ft 147 kts 270°
2026-05-06 20:23 45.21018 9.42461 2989 ft 198 kts 266°
2026-05-06 20:23 45.20932 9.40302 2995 ft 239 kts 269°
2026-05-06 20:24 45.20886 9.37832 2992 ft 248 kts 266°
2026-05-06 20:24 45.20861 9.35529 3098 ft 220 kts 281°
2026-05-06 20:24 45.21655 9.33765 3109 ft 216 kts 319°
2026-05-06 20:24 45.22794 9.33023 3535 ft 147 kts 349°
2026-05-06 20:25 45.23753 9.32800 3377 ft 140 kts 352°
2026-05-06 20:25 45.24730 9.32550 3108 ft 138 kts 345°
2026-05-06 20:25 45.25671 9.32198 3013 ft 152 kts 347°
2026-05-06 20:25 45.26897 9.31732 2903 ft 209 kts 346°
2026-05-06 20:26 45.28446 9.31208 2895 ft 248 kts 347°
2026-05-06 20:26 45.30205 9.30660 2875 ft 266 kts 349°
2026-05-06 20:26 45.31995 9.30025 2355 ft 252 kts 345°
2026-05-06 20:26 45.33491 9.29385 2198 ft 190 kts 343°
2026-05-06 20:27 45.34541 9.28940 2016 ft 140 kts 349°
2026-05-06 20:27 45.35409 9.28726 1784 ft 122 kts 360°
2026-05-06 20:27 45.36208 9.28728 1644 ft 112 kts 359°
2026-05-06 20:27 45.37004 9.28583 1424 ft 120 kts 356°
2026-05-06 20:28 45.37833 9.28442 1337 ft 123 kts
2026-05-06 20:28 45.38718 9.28375 1209 ft 134 kts 358°
2026-05-06 20:28 45.39668 9.28248 1025 ft 137 kts 359°
2026-05-06 20:28 45.40608 9.28143 873 ft 138 kts 359°
2026-05-06 20:29 45.41551 9.28043 743 ft 135 kts 356°
2026-05-06 20:29 45.42486 9.27923 600 ft 120 kts 356°
2026-05-06 20:29 45.43222 9.27831 415 ft 94 kts 360°
2026-05-06 20:29 45.43793 9.27803 345 ft 69 kts
2026-05-06 20:30 45.44172 9.27743 347 ft 28 kts 356°